N7LK Weather Reports


Display with metric or nautical units.
time (UTC)temp
F
wind
direction
speed
MPH
gust
MPH
rain 1hr
in
rain 24hr
in
rain mn
in
humidity
%
barometer
mb
20260509041330 92 248 1.0 5.0 0.00 0.00 0.00 15 1006.1
20260509040337 93 221 3.0 8.0 0.00 0.00 0.00 15 1006.0
20260509035405 93 216 2.0 6.0 0.00 0.00 0.00 15 1005.8
20260509034335 94 255 2.0 9.0 0.00 0.00 0.00 15 1005.7
20260509033402 94 298 5.0 11.0 0.00 0.00 0.00 14 1005.6
20260509032329 94 224 2.0 7.0 0.00 0.00 0.00 14 1005.5
20260509031336 95 271 0.0 11.0 0.00 0.00 0.00 14 1005.4
20260509030328 95 271 4.0 10.0 0.00 0.00 0.00 14 1005.3
20260509025335 96 257 1.0 8.0 0.00 0.00 0.00 13 1005.1
20260509024343 96 249 4.0 11.0 0.00 0.00 0.00 13 1004.9
20260509023330 96 249 1.0 7.0 0.00 0.00 0.00 13 1004.8
20260509022401 97 267 4.0 9.0 0.00 0.00 0.00 12 1004.7
20260509021346 97 247 3.0 11.0 0.00 0.00 0.00 12 1004.6
20260509020334 98 281 5.0 11.0 0.00 0.00 0.00 12 1004.6
20260509015340 98 294 2.0 10.0 0.00 0.00 0.00 12 1004.5
20260509014332 99 267 2.0 10.0 0.00 0.00 0.00 11 1004.5
20260509013339 99 175 3.0 10.0 0.00 0.00 0.00 11 1004.5
20260509012406 99 237 6.0 11.0 0.00 0.00 0.00 11 1004.5
20260509011333 100 197 1.0 12.0 0.00 0.00 0.00 11 1004.6
20260509010405 100 265 5.0 13.0 0.00 0.00 0.00 11 1004.6
20260509005331 100 192 0.0 10.0 0.00 0.00 0.00 11 1004.7
20260509004339 100 255 7.0 13.0 0.00 0.00 0.00 11 1004.8
20260509003327 100 278 5.0 10.0 0.00 0.00 0.00 11 1004.8
20260509002338 100 298 5.0 12.0 0.00 0.00 0.00 11 1004.9
20260509001405 101 252 6.0 11.0 0.00 0.00 0.00 11 1005.0
20260509000352 100 228 3.0 13.0 0.00 0.00 0.00 11 1005.0
20260508235338 100 261 3.0 13.0 0.00 0.00 0.00 12 1005.0
20260508234329 100 281 3.0 12.0 0.00 0.00 0.00 12 1005.1
20260508233336 100 240 7.0 15.0 0.00 0.00 0.00 12 1005.4
20260508232343 100 205 6.0 14.0 0.00 0.00 0.00 12 1005.4
20260508231330 100 250 5.0 12.0 0.00 0.00 0.00 13 1005.5
20260508230356 100 269 4.0 11.0 0.00 0.00 0.00 13 1005.6
20260508225407 99 269 8.0 13.0 0.00 0.00 0.00 13 1005.6
20260508224352 100 259 8.0 11.0 0.00 0.00 0.00 13 1005.9
20260508223338 99 289 4.0 12.0 0.00 0.00 0.00 13 1006.1
20260508222345 99 257 5.0 11.0 0.00 0.00 0.00 14 1006.3
20260508221336 98 332 5.0 14.0 0.00 0.00 0.00 13 1006.5
20260508220343 98 276 5.0 12.0 0.00 0.00 0.00 13 1006.7
20260508215329 99 284 8.0 17.0 0.00 0.00 0.00 13 1006.9
20260508214337 99 261 4.0 13.0 0.00 0.00 0.00 13 1007.1
20260508213327 99 256 5.0 12.0 0.00 0.00 0.00 13 1007.2
20260508212335 98 263 4.0 10.0 0.00 0.00 0.00 14 1007.4
20260508211401 98 306 2.0 12.0 0.00 0.00 0.00 14 1007.6
20260508210327 97 273 3.0 11.0 0.00 0.00 0.00 14 1007.8
20260508205340 97 305 3.0 12.0 0.00 0.00 0.00 15 1007.9
20260508204346 96 226 5.0 10.0 0.00 0.00 0.00 15 1008.2
20260508203332 96 250 2.0 9.0 0.00 0.00 0.00 15 1008.3
20260508202339 96 280 4.0 12.0 0.00 0.00 0.00 14 1008.4
20260508201331 96 240 6.0 11.0 0.00 0.00 0.00 14 1008.6
20260508200336 95 228 3.0 12.0 0.00 0.00 0.00 15 1008.7
20260508195343 94 274 3.0 8.0 0.00 0.00 0.00 14 1008.8
20260508194330 94 217 3.0 7.0 0.00 0.00 0.00 14 1008.8
20260508193342 94 200 1.0 5.0 0.00 0.00 0.00 16 1009.0
20260508192329 94 288 1.0 7.0 0.00 0.00 0.00 15 1009.2
20260508191335 93 243 0.0 10.0 0.00 0.00 0.00 16 1009.5
20260508190342 93 211 2.0 8.0 0.00 0.00 0.00 16 1009.7
20260508185333 93 115 0.0 1.0 0.00 0.00 0.00 15 1009.8
20260508184340 92 323 1.0 10.0 0.00 0.00 0.00 16 1009.9
20260508183327 92 130 0.0 5.0 0.00 0.00 0.00 17 1010.1
20260508182334 92 105 0.0 1.0 0.00 0.00 0.00 16 1010.1
20260508181345 92 96 0.0 0.0 0.00 0.00 0.00 16 1010.3
20260508180333 91 188 0.0 0.0 0.00 0.00 0.00 17 1010.4
20260508175340 91 207 0.0 0.0 0.00 0.00 0.00 18 1010.5
20260508174328 90 215 0.0 0.0 0.00 0.00 0.00 18 1010.5
20260508173339 90 319 0.0 0.0 0.00 0.00 0.00 18 1010.7
20260508172327 89 153 0.0 0.0 0.00 0.00 0.00 19 1010.7
20260508171331 88 96 0.0 2.0 0.00 0.00 0.00 19 1010.8
20260508170359 88 31 0.0 0.0 0.00 0.00 0.00 19 1010.9
20260508165328 87 10 0.0 0.0 0.00 0.00 0.00 20 1010.9
20260508164336 86 46 0.0 0.0 0.00 0.00 0.00 20 1011.0
20260508163345 86 196 0.0 1.0 0.00 0.00 0.00 21 1010.9
20260508162352 85 226 0.0 0.0 0.00 0.00 0.00 22 1011.0
20260508161358 84 181 0.0 0.0 0.00 0.00 0.00 22 1011.0
20260508160346 83 351 0.0 0.0 0.00 0.00 0.00 22 1011.1
20260508155333 83 168 0.0 0.0 0.00 0.00 0.00 23 1011.1
20260508154400 82 175 0.0 2.0 0.00 0.00 0.00 24 1011.1
20260508153327 81 49 0.0 1.0 0.00 0.00 0.00 24 1011.1
20260508152358 80 73 0.0 4.0 0.00 0.00 0.00 26 1011.1
20260508151344 79 68 3.0 8.0 0.00 0.00 0.00 26 1011.2
20260508150332 79 86 4.0 8.0 0.00 0.00 0.00 26 1011.1
20260508145339 78 74 2.0 8.0 0.00 0.00 0.00 26 1011.1
20260508144330 77 88 2.0 7.0 0.00 0.00 0.00 27 1011.1
20260508143358 76 70 1.0 6.0 0.00 0.00 0.00 30 1011.0
20260508142404 75 82 3.0 8.0 0.00 0.00 0.00 30 1011.1
20260508141331 74 113 2.0 6.0 0.00 0.00 0.00 31 1010.9
20260508140339 74 66 0.0 4.0 0.00 0.00 0.00 33 1010.9
20260508135330 73 75 1.0 6.0 0.00 0.00 0.00 33 1010.8
20260508134358 72 74 1.0 5.0 0.00 0.00 0.00 33 1010.8
20260508133345 71 71 2.0 6.0 0.00 0.00 0.00 33 1010.7
20260508132332 70 74 0.0 6.0 0.00 0.00 0.00 34 1010.4
20260508131344 70 52 1.0 6.0 0.00 0.00 0.00 34 1010.3
20260508130331 69 64 0.0 0.0 0.00 0.00 0.00 34 1010.1
20260508125338 70 78 0.0 0.0 0.00 0.00 0.00 33 1009.9
20260508124406 70 67 2.0 5.0 0.00 0.00 0.00 33 1009.8
20260508123336 70 62 0.0 5.0 0.00 0.00 0.00 33 1009.8
20260508122344 70 74 0.0 4.0 0.00 0.00 0.00 33 1009.6
20260508121332 70 112 0.0 4.0 0.00 0.00 0.00 32 1009.5
20260508120359 70 75 1.0 5.0 0.00 0.00 0.00 31 1009.4
20260508115330 70 71 0.0 3.0 0.00 0.00 0.00 31 1009.3
20260508114336 70 65 0.0 4.0 0.00 0.00 0.00 30 1009.4
20260508113403 70 90 0.0 5.0 0.00 0.00 0.00 30 1009.2
20260508112331 71 55 0.0 7.0 0.00 0.00 0.00 29 1009.3
20260508111402 71 80 0.0 6.0 0.00 0.00 0.00 28 1009.3
20260508110328 71 81 0.0 4.0 0.00 0.00 0.00 27 1009.3
20260508105335 71 78 0.0 2.0 0.00 0.00 0.00 26 1009.2
20260508104341 72 85 0.0 4.0 0.00 0.00 0.00 25 1009.2
20260508103332 72 81 1.0 4.0 0.00 0.00 0.00 24 1009.1
20260508102339 72 71 3.0 5.0 0.00 0.00 0.00 24 1009.1
20260508101344 72 111 1.0 6.0 0.00 0.00 0.00 23 1009.0
20260508100331 73 98 0.0 5.0 0.00 0.00 0.00 22 1009.1
20260508095343 73 100 0.0 5.0 0.00 0.00 0.00 22 1009.0
20260508094331 73 82 1.0 5.0 0.00 0.00 0.00 22 1009.0
20260508093358 74 83 0.0 8.0 0.00 0.00 0.00 23 1008.9
20260508092343 74 72 0.0 3.0 0.00 0.00 0.00 23 1008.9
20260508091350 74 82 0.0 1.0 0.00 0.00 0.00 23 1008.9
20260508090340 74 75 0.0 1.0 0.00 0.00 0.00 23 1008.8
20260508085406 74 97 0.0 0.0 0.00 0.00 0.00 24 1008.8
20260508084331 74 64 0.0 0.0 0.00 0.00 0.00 24 1008.8
20260508083359 74 78 0.0 0.0 0.00 0.00 0.00 24 1008.9
20260508082329 74 52 0.0 2.0 0.00 0.00 0.00 23 1009.0
20260508081336 75 94 1.0 2.0 0.00 0.00 0.00 25 1009.0
20260508080343 75 11 0.0 0.0 0.00 0.00 0.00 23 1009.0
20260508075332 76 304 0.0 0.0 0.00 0.00 0.00 23 1008.9
20260508074402 76 27 0.0 0.0 0.00 0.00 0.00 22 1008.9
20260508073329 77 27 0.0 0.0 0.00 0.00 0.00 21 1008.9
20260508072336 77 329 0.0 0.0 0.00 0.00 0.00 21 1008.8
20260508071342 78 329 0.0 0.0 0.00 0.00 0.00 20 1008.7
20260508070348 78 327 0.0 0.0 0.00 0.00 0.00 20 1008.5
20260508065358 79 327 0.0 0.0 0.00 0.00 0.00 18 1008.5
20260508064345 79 292 0.0 0.0 0.00 0.00 0.00 18 1008.4
20260508063353 80 277 0.0 0.0 0.00 0.00 0.00 17 1008.6
20260508062359 81 277 0.0 0.0 0.00 0.00 0.00 16 1008.5
20260508061406 82 305 0.0 0.0 0.00 0.00 0.00 16 1008.5
20260508060336 82 305 0.0 2.0 0.00 0.00 0.00 15 1008.6
20260508055343 82 296 0.0 2.0 0.00 0.00 0.00 15 1008.6
20260508054351 82 279 0.0 4.0 0.00 0.00 0.00 15 1008.5
20260508053338 81 290 1.0 8.0 0.00 0.00 0.00 15 1008.5
20260508052330 81 263 0.0 2.0 0.00 0.00 0.00 16 1008.5
20260508051335 81 268 0.0 2.0 0.00 0.00 0.00 17 1008.5
20260508050343 82 248 0.0 0.0 0.00 0.00 0.00 17 1008.5
20260508045330 82 243 0.0 0.0 0.00 0.00 0.00 16 1008.4
20260508044342 83 243 0.0 0.0 0.00 0.00 0.00 15 1008.3
20260508043328 84 243 0.0 0.0 0.00 0.00 0.00 14 1008.2
20260508042335 85 243 0.0 0.0 0.00 0.00 0.00 15 1008.1